Location: Codford Saint Peter
(51.1597°N, 2.0531°W)
Time: 14:51:19
(UTC+00:00)

CZ-2C R/B - Pass Details

Date: 18 September 2020
Orbit: 640 x 704 km, 98.4° (Epoch: 27 October)

Event Time Altitude Azimuth Distance (km) Brightness Sun altitude
Rises 19:58:31 0° 21° (NNE) 2,963 7.1 -16.6°
Reaches altitude 10° 20:00:53 10° 30° (NNE) 2,052 6.2 -16.9°
Maximum altitude 20:05:00 36° 97° (E) 1,034 4.2 -17.5°
Enters shadow 20:05:30 35° 112° (ESE) 1,055 4.2 -17.6°
